Date,TemperatureHighF,TemperatureAvgF,TemperatureLowF,DewpointHighF,DewpointAvgF,DewpointLowF,HumidityHigh,HumidityAvg,HumidityLow,PressureMaxIn,PressureMinIn,WindSpeedMaxMPH,WindSpeedAvgMPH,GustSpeedMaxMPH,PrecipitationSumIn
2013-5-1,85.0,73.9,62.0,80.0,69.5,58.0,86,86,86,30.00,30.00,10,5,32,0.00
2013-5-2,62.0,50.6,42.0,58.0,46.6,37.0,86,86,86,30.00,30.00,10,7,32,0.02
2013-5-3,52.0,44.7,38.0,48.0,40.7,34.0,86,86,86,30.00,30.00,10,5,32,1.71
2013-5-4,71.0,59.7,50.0,67.0,55.7,46.0,86,86,86,30.00,30.00,8,3,127,0.34
2013-5-5,76.0,64.8,53.0,72.0,60.8,49.0,86,86,86,30.00,30.00,8,3,32,0.01
2013-5-6,78.0,64.6,53.0,73.0,60.6,49.0,86,86,86,30.00,30.00,10,3,32,0.00
2013-5-7,81.0,67.9,54.0,76.0,63.7,50.0,86,86,86,30.00,30.00,5,0,32,0.00
2013-5-8,81.0,67.3,52.0,76.0,63.0,48.0,86,86,86,30.00,30.00,5,1,32,0.00
2013-5-9,71.0,63.4,59.0,67.0,59.4,55.0,86,86,86,30.00,30.00,7,2,32,0.39
2013-5-10,61.0,51.0,46.0,57.0,45.7,-99.9,86,86,86,30.00,30.00,8,3,32,0.19
2013-5-11,57.0,50.6,45.0,53.0,45.9,-99.9,86,86,86,30.00,30.00,15,6,64,0.03
2013-5-12,59.0,47.9,39.0,55.0,43.9,35.0,86,86,86,30.00,30.00,12,5,64,0.01
2013-5-13,71.0,56.7,37.0,67.0,52.7,33.0,86,86,86,30.00,30.00,8,2,48,0.00
2013-5-14,94.0,71.9,55.0,89.0,67.4,51.0,86,86,86,30.00,30.00,10,6,32,0.00
2013-5-15,83.0,74.5,65.0,78.0,70.0,61.0,86,86,86,30.00,30.00,12,3,32,0.00
2013-5-16,86.0,63.9,57.0,81.0,40.3,-99.9,86,86,86,30.00,30.00,8,2,32,0.00
2013-5-17,82.0,70.2,61.0,77.0,60.7,-99.9,86,86,86,30.00,30.00,6,3,32,0.00
2013-5-18,84.0,71.2,62.0,79.0,66.9,58.0,86,86,86,30.00,30.00,7,2,32,0.00
2013-5-19,89.0,71.9,64.0,84.0,67.6,60.0,86,86,86,30.00,30.00,16,4,36,0.26
2013-5-20,82.0,71.0,63.0,77.0,66.7,59.0,86,86,86,30.00,30.00,13,5,36,0.38
2013-5-21,79.0,69.8,62.0,74.0,65.6,58.0,86,86,86,30.00,30.00,12,5,32,0.08
2013-5-22,70.0,63.7,60.0,66.0,59.7,56.0,86,86,86,30.00,30.00,7,2,32,0.00
2013-5-23,68.0,59.0,51.0,64.0,55.0,47.0,86,86,86,30.00,30.00,7,3,32,0.08
2013-5-24,71.0,55.7,39.0,67.0,51.7,35.0,86,86,86,30.00,30.00,6,1,127,0.01
2013-5-25,56.0,50.5,47.0,52.0,46.5,43.0,86,86,86,30.00,30.00,5,2,127,0.48
2013-5-28,79.0,72.4,64.0,74.0,68.2,60.0,86,86,86,30.00,30.00,10,6,32,0.24
2013-5-29,85.0,73.2,62.0,80.0,68.8,58.0,86,86,86,30.00,30.00,13,4,35,0.20
2013-5-30,84.0,72.3,63.0,79.0,68.0,59.0,86,86,86,30.00,30.00,13,7,159,0.48
2013-5-31,75.0,67.7,61.0,71.0,63.7,57.0,86,86,86,30.00,30.00,14,4,37,0.29